Regional Weather Roundup
Issued by NWS Newport/Morehead, NC

Current Version | Previous Version | Graphics & Text | Print | Product List | Glossary Off
Versions: 1 2 3 4 5 6 7 8 9 10 11 12 13 14 15 16 17 18 19 20 21 22 23 24 25 26 27 28 29 30 31 32 33 34 35 36 37 38 39 40 41 42 43 44 45 46 47 48 49 50
000 ASUS42 KMHX 291725 RWRMHX WEATHER ROUNDUP FOR EASTERN NORTH CAROLINA NATIONAL WEATHER SERVICE NEWPORT/MOREHEAD CITY NC 100 PM EDT FRI MAY 29 2015 NOTE: "FAIR" INDICATES FEW OR NO CLOUDS BELOW 12,000 FEET WITH NO SIGNIFICANT WEATHER AND/OR OBSTRUCTIONS TO VISIBILITY NCZ015>017-031-032-045>047-102-103-291800- NORTH COAST CITY SKY/WX TMP DP RH WIND PRES REMARKS EDENTON N/A 82 65 56 E6 30.25F ELIZABETH CITY SUNNY 81 65 58 E8 30.26F KITTY HAWK SUNNY 77 65 65 NE8 30.27S MANTEO SUNNY 77 66 69 E10 30.27S $$ NCZ045>047-081-094-103-104-291800- CENTRAL COAST CITY SKY/WX TMP DP RH WIND PRES REMARKS FRISCO SUNNY 82 66 58 SE10 30.26S SWANQUARTER N/A 82 N/A N/A SE8G15 30.24R $$ NCZ095-097-098-100-101-291800- SOUTHERN COAST CITY SKY/WX TMP DP RH WIND PRES REMARKS BEAUFORT SUNNY 80 69 69 SE12 30.24F CEDAR ISLAND N/A 81 N/A N/A E9 30.30S JACKSONVILLE MOSUNNY 84 64 50 SE10 30.24S PINEY ISLAND SUNNY N/A N/A N/A NE12 30.25S WILMINGTON MOSUNNY 82 65 56 SE10 30.24S $$ NCZ011>013-027>030-043-044-078>080-089-090>093-098-291800- COASTAL PLAIN CITY SKY/WX TMP DP RH WIND PRES REMARKS AHOSKIE SUNNY 82 61 48 NE6 30.25S CLINTON SUNNY 83 60 45 SE5 30.25S ELIZABETHTOWN SUNNY 84 57 39 S5 30.24S GOLDSBORO MOSUNNY 84 56 38 SE7 30.22S GREENVILLE SUNNY 82 61 47 E7 30.26S HAVELOCK MOSUNNY 83 65 54 NE5 30.25F KENANSVILLE SUNNY 82 55 39 CALM 30.25F KINSTON SUNNY 84 59 42 MISG 30.25 NEW BERN MOSUNNY 84 63 49 VRB5 30.25F RICHLANDS MOSUNNY 84 63 48 SE8 30.24S ROCKY MOUNT MOSUNNY 85 65 51 VRB3 30.25F WASHINGTON MOSUNNY 82 64 55 SE5 30.26S WHITEVILLE MOSUNNY 82 61 47 CALM 30.23F $$ AMZ130-135-150-152-154-156-158-170-250-252-270-ANZ085-086-088-633-658-670-291800- MARINE OBSERVATIONS STATION/POSITION TIME TEMP WIND PRES WAVE SWELL AIR SEA DIR/SP/G HT/PER HT/PER (UTC) (F) (DEG/KT/KT) (MB) (FT/S) (FT/S) CHESAPEAKE LIGHT 1700 68 140/ 13/ 13 1025.7 64 E VA BEACH 1650 69 68 80/ 4/ 6 1025.0 3/ 9 3/ 9 DUCK 1700 73 63 70/ 8/ 9 1024.3 2 E DUCK 1611 69 N/A 2/ 8 OREGON INLET 1700 75 78 50/ 9/ 11 1024.9 13E OREGON INLT 1700 75 N/A 3/ 8 HATTERAS CG 1700 78 76 100/ 6/ 10 1024.3 DIAMOND BUOY 1650 77 80 120/ 12/ 16 1024.4 3/ 9 3/ 9 CAPE LOOKOUT 1700 75 50/ 9/ 10 1024.1 BEAUFORT LAB 1700 78 76 90/ 8/ 13 1023.4 27 SE WRIGHTSVLE 1700 76 60/ 12/ 16 N/A 5 SE WRIGHTSVLE 1608 76 77 80/ 10/ 14 1024.3 225 S CAPE HAT 1650 75 74 90/ 16/ 19 1022.7 6/ 9 3/ 9 41 SE CHARLESTON 1650 77 78 80/ 10/ 12 1022.8 4/ 8 3/ 8 $$

USA.gov is the U.S. government's official web portal to all federal, state and local government web resources and services.